Time,TemperatureF,DewpointF,PressureIn,WindDirection,WindDirectionDegrees,WindSpeedMPH,WindSpeedGustMPH,Humidity,HourlyPrecipIn,Conditions,Clouds,dailyrainin,SolarRadiationWatts/m^2,SoftwareType,DateUTC
2013-07-18 00:05:00,76.3,68.5,30.06,South,180,0.0,0.0,77,0.00,,,0.00,0.0,WeatherDisplay:10.37,2013-07-18 05:05:00,
2013-07-18 00:10:00,76.1,68.4,30.06,South,180,0.0,0.0,77,0.00,,,0.00,0.0,WeatherDisplay:10.37,2013-07-18 05:10:00,
2013-07-18 00:15:00,75.9,68.6,30.06,South,180,0.0,0.0,78,0.00,,,0.00,0.0,WeatherDisplay:10.37,2013-07-18 05:15:00,
2013-07-18 00:20:00,75.9,68.6,30.06,South,180,0.0,0.0,78,0.00,,,0.00,0.0,WeatherDisplay:10.37,2013-07-18 05:20:00,
2013-07-18 00:25:00,75.7,68.4,30.06,South,180,0.0,0.0,78,0.00,,,0.00,0.0,WeatherDisplay:10.37,2013-07-18 05:25:00,
2013-07-18 00:31:00,75.7,68.4,30.06,South,180,0.0,0.0,78,0.00,,,0.00,0.0,WeatherDisplay:10.37,2013-07-18 05:31:00,
2013-07-18 00:36:00,75.6,68.6,30.06,South,180,0.0,0.0,79,0.00,,,0.00,0.0,WeatherDisplay:10.37,2013-07-18 05:36:00,
2013-07-18 00:41:00,75.6,68.6,30.06,South,180,1.1,0.0,79,0.00,,,0.00,0.0,WeatherDisplay:10.37,2013-07-18 05:41:00,
2013-07-18 00:46:00,75.6,69.0,30.03,South,180,0.0,0.0,80,0.00,,,0.00,0.0,WeatherDisplay:10.37,2013-07-18 05:46:00,
2013-07-18 00:51:00,75.6,68.6,30.03,South,180,0.0,0.0,79,0.00,,,0.00,0.0,WeatherDisplay:10.37,2013-07-18 05:51:00,
2013-07-18 00:56:00,75.6,69.0,30.03,South,180,0.0,0.0,80,0.00,,,0.00,0.0,WeatherDisplay:10.37,2013-07-18 05:56:00,
2013-07-18 01:02:00,75.4,68.4,30.03,South,180,0.0,0.0,79,0.00,,,0.00,0.0,WeatherDisplay:10.37,2013-07-18 06:02:00,
2013-07-18 01:07:00,75.4,68.8,30.03,South,180,0.0,0.0,80,0.00,,,0.00,0.0,WeatherDisplay:10.37,2013-07-18 06:07:00,
2013-07-18 01:12:00,75.2,68.6,30.03,South,180,0.0,0.0,80,0.00,,,0.00,0.0,WeatherDisplay:10.37,2013-07-18 06:12:00,
2013-07-18 01:17:00,75.0,68.4,30.03,South,180,0.0,0.0,80,0.00,,,0.00,0.0,WeatherDisplay:10.37,2013-07-18 06:17:00,
2013-07-18 01:22:00,75.0,68.4,30.03,South,180,0.0,0.0,80,0.00,,,0.00,0.0,WeatherDisplay:10.37,2013-07-18 06:22:00,
2013-07-18 01:27:00,74.8,68.6,30.00,South,180,0.0,0.0,81,0.00,,,0.00,0.0,WeatherDisplay:10.37,2013-07-18 06:27:00,
2013-07-18 01:32:00,74.8,68.6,30.00,South,180,0.0,0.0,81,0.00,,,0.00,0.0,WeatherDisplay:10.37,2013-07-18 06:32:00,
2013-07-18 01:38:00,74.7,68.4,30.00,South,180,0.0,0.0,81,0.00,,,0.00,0.0,WeatherDisplay:10.37,2013-07-18 06:38:00,
2013-07-18 01:43:00,74.7,68.8,30.00,South,180,0.0,0.0,82,0.00,,,0.00,0.0,WeatherDisplay:10.37,2013-07-18 06:43:00,
2013-07-18 01:48:00,74.5,68.6,30.00,South,180,0.0,0.0,82,0.00,,,0.00,0.0,WeatherDisplay:10.37,2013-07-18 06:48:00,
2013-07-18 01:53:00,74.5,68.6,30.00,South,180,0.0,0.0,82,0.00,,,0.00,0.0,WeatherDisplay:10.37,2013-07-18 06:53:00,
2013-07-18 01:59:00,74.3,68.4,30.03,South,180,0.0,0.0,82,0.00,,,0.00,0.0,WeatherDisplay:10.37,2013-07-18 06:59:00,
2013-07-18 02:04:00,74.3,68.8,30.03,South,180,0.0,0.0,83,0.00,,,0.00,0.0,WeatherDisplay:10.37,2013-07-18 07:04:00,
2013-07-18 02:09:00,74.1,68.6,30.03,SSE,158,1.1,0.0,83,0.00,,,0.00,0.0,WeatherDisplay:10.37,2013-07-18 07:09:00,
2013-07-18 02:14:00,74.1,68.6,30.03,SSE,158,0.0,0.0,83,0.00,,,0.00,0.0,WeatherDisplay:10.37,2013-07-18 07:14:00,
2013-07-18 02:19:00,73.9,68.4,30.03,SSE,158,0.0,0.0,83,0.00,,,0.00,0.0,WeatherDisplay:10.37,2013-07-18 07:19:00,
2013-07-18 02:25:00,73.9,68.8,30.03,SSE,158,0.0,0.0,84,0.00,,,0.00,0.0,WeatherDisplay:10.37,2013-07-18 07:25:00,
2013-07-18 02:30:00,73.9,68.8,30.03,SSE,158,0.0,0.0,84,0.00,,,0.00,0.0,WeatherDisplay:10.37,2013-07-18 07:30:00,
2013-07-18 02:35:00,73.8,68.6,30.03,SSE,158,0.0,0.0,84,0.00,,,0.00,0.0,WeatherDisplay:10.37,2013-07-18 07:35:00,
2013-07-18 02:40:00,73.8,69.0,30.03,SSE,158,0.0,0.0,85,0.00,,,0.00,0.0,WeatherDisplay:10.37,2013-07-18 07:40:00,
2013-07-18 02:45:00,73.8,69.0,30.03,SSE,158,0.0,0.0,85,0.00,,,0.00,0.0,WeatherDisplay:10.37,2013-07-18 07:45:00,
2013-07-18 02:50:00,73.8,69.0,30.03,SSE,158,0.0,0.0,85,0.00,,,0.00,0.0,WeatherDisplay:10.37,2013-07-18 07:50:00,
2013-07-18 02:56:00,73.9,69.5,30.03,South,180,1.1,0.0,86,0.00,,,0.00,0.0,WeatherDisplay:10.37,2013-07-18 07:56:00,
2013-07-18 03:01:00,74.1,69.7,30.06,SSW,202,2.0,0.0,86,0.00,,,0.00,0.0,WeatherDisplay:10.37,2013-07-18 08:01:00,
2013-07-18 03:06:00,74.3,69.8,30.06,SSE,158,1.1,0.0,86,0.00,,,0.00,0.0,WeatherDisplay:10.37,2013-07-18 08:06:00,
2013-07-18 03:12:00,74.3,69.8,30.06,SSE,158,0.0,0.0,86,0.00,,,0.00,0.0,WeatherDisplay:10.37,2013-07-18 08:12:00,
2013-07-18 03:17:00,74.3,69.8,30.03,SSE,158,2.3,2.3,86,0.00,,,0.00,0.0,WeatherDisplay:10.37,2013-07-18 08:17:00,
2013-07-18 03:22:00,74.7,70.2,30.03,SSW,202,2.3,2.3,86,0.00,,,0.00,0.0,WeatherDisplay:10.37,2013-07-18 08:22:00,
2013-07-18 03:27:00,74.8,70.4,30.03,SSW,202,2.3,2.3,86,0.00,,,0.00,0.0,WeatherDisplay:10.37,2013-07-18 08:27:00,
2013-07-18 03:32:00,74.8,70.4,30.00,SSW,202,0.0,0.0,86,0.00,,,0.00,0.0,WeatherDisplay:10.37,2013-07-18 08:32:00,
2013-07-18 03:37:00,74.8,70.4,30.00,SSW,202,1.1,0.0,86,0.00,,,0.00,0.0,WeatherDisplay:10.37,2013-07-18 08:37:00,
2013-07-18 03:42:00,74.8,70.4,30.00,SW,225,2.4,0.0,86,0.00,,,0.00,0.0,WeatherDisplay:10.37,2013-07-18 08:42:00,
2013-07-18 03:48:00,75.0,70.5,30.00,SSW,202,1.1,0.0,86,0.00,,,0.00,0.0,WeatherDisplay:10.37,2013-07-18 08:48:00,
2013-07-18 03:53:00,75.0,70.5,30.00,SSW,202,2.0,2.0,86,0.00,,,0.00,0.0,WeatherDisplay:10.37,2013-07-18 08:53:00,
2013-07-18 03:58:00,75.0,70.5,30.00,SSW,202,1.1,0.0,86,0.00,,,0.00,0.0,WeatherDisplay:10.37,2013-07-18 08:58:00,
2013-07-18 04:03:00,75.0,70.2,30.00,South,180,1.1,0.0,85,0.00,,,0.00,0.0,WeatherDisplay:10.37,2013-07-18 09:03:00,
2013-07-18 04:08:00,75.0,70.2,30.00,SSW,202,2.3,2.3,85,0.00,,,0.00,0.0,WeatherDisplay:10.37,2013-07-18 09:08:00,
2013-07-18 04:13:00,75.0,70.5,30.00,SW,225,2.4,0.0,86,0.00,,,0.00,0.0,WeatherDisplay:10.37,2013-07-18 09:13:00,
2013-07-18 04:18:00,75.0,70.5,30.00,SSW,202,1.1,1.1,86,0.00,,,0.00,0.0,WeatherDisplay:10.37,2013-07-18 09:18:00,
2013-07-18 04:24:00,75.0,70.5,30.00,SSW,202,0.0,0.0,86,0.00,,,0.00,0.0,WeatherDisplay:10.37,2013-07-18 09:24:00,
2013-07-18 04:29:00,75.0,70.5,30.00,SSW,202,1.1,0.0,86,0.00,,,0.00,0.0,WeatherDisplay:10.37,2013-07-18 09:29:00,
2013-07-18 04:34:00,74.8,70.0,30.00,SSW,202,1.1,0.0,85,0.00,,,0.00,0.0,WeatherDisplay:10.37,2013-07-18 09:34:00,
2013-07-18 04:39:00,74.7,69.8,30.00,SSW,202,0.0,0.0,85,0.00,,,0.00,0.0,WeatherDisplay:10.37,2013-07-18 09:39:00,
2013-07-18 04:44:00,74.7,69.8,29.97,SSW,202,0.0,0.0,85,0.00,,,0.00,0.0,WeatherDisplay:10.37,2013-07-18 09:44:00,
2013-07-18 04:49:00,74.5,69.7,29.97,SSW,202,0.0,0.0,85,0.00,,,0.00,0.0,WeatherDisplay:10.37,2013-07-18 09:49:00,
2013-07-18 04:55:00,74.3,69.8,29.97,SSW,202,0.0,0.0,86,0.00,,,0.00,0.0,WeatherDisplay:10.37,2013-07-18 09:55:00,
2013-07-18 05:00:00,74.1,69.7,30.00,SSW,202,0.0,0.0,86,0.00,,,0.00,0.0,WeatherDisplay:10.37,2013-07-18 10:00:00,
2013-07-18 05:05:00,73.9,69.5,30.00,SSW,202,0.0,0.0,86,0.00,,,0.00,0.0,WeatherDisplay:10.37,2013-07-18 10:05:00,
2013-07-18 05:10:00,73.9,69.8,30.00,SSW,202,0.0,0.0,87,0.00,,,0.00,0.0,WeatherDisplay:10.37,2013-07-18 10:10:00,
2013-07-18 05:15:00,73.9,69.8,29.97,SSW,202,2.3,2.3,87,0.00,,,0.00,0.0,WeatherDisplay:10.37,2013-07-18 10:15:00,
2013-07-18 05:20:00,74.1,70.3,29.97,SSW,202,3.5,3.5,88,0.00,,,0.00,0.0,WeatherDisplay:10.37,2013-07-18 10:20:00,
2013-07-18 05:25:00,74.3,70.5,29.97,SW,225,2.6,2.6,88,0.00,,,0.00,0.0,WeatherDisplay:10.37,2013-07-18 10:25:00,
2013-07-18 05:31:00,74.5,70.7,29.97,SSW,202,2.3,2.3,88,0.00,,,0.00,0.0,WeatherDisplay:10.37,2013-07-18 10:31:00,
2013-07-18 05:36:00,74.7,70.9,29.97,SW,225,2.3,2.3,88,0.00,,,0.00,0.0,WeatherDisplay:10.37,2013-07-18 10:36:00,
2013-07-18 05:41:00,74.8,70.7,29.97,SSW,202,3.5,3.5,87,0.00,,,0.00,0.0,WeatherDisplay:10.37,2013-07-18 10:41:00,
2013-07-18 05:46:00,75.0,70.9,29.97,SSW,202,2.4,2.4,87,0.00,,,0.00,0.0,WeatherDisplay:10.37,2013-07-18 10:46:00,
2013-07-18 05:51:00,75.0,70.9,29.97,SSW,202,2.3,2.3,87,0.00,,,0.00,0.0,WeatherDisplay:10.37,2013-07-18 10:51:00,
2013-07-18 05:56:00,75.2,71.1,29.97,SSW,202,2.4,2.4,87,0.00,,,0.00,0.0,WeatherDisplay:10.37,2013-07-18 10:56:00,
2013-07-18 06:01:00,75.2,71.1,29.97,SSW,202,2.3,2.3,87,0.00,,,0.00,0.0,WeatherDisplay:10.37,2013-07-18 11:01:00,
2013-07-18 06:06:00,75.4,71.2,29.97,SSW,202,2.4,2.4,87,0.00,,,0.00,0.0,WeatherDisplay:10.37,2013-07-18 11:06:00,
2013-07-18 06:11:00,75.6,71.4,29.97,SSW,202,3.5,3.5,87,0.00,,,0.00,0.0,WeatherDisplay:10.37,2013-07-18 11:11:00,
2013-07-18 06:16:00,75.7,71.3,29.97,SSW,202,4.6,4.6,86,0.00,,,0.00,0.0,WeatherDisplay:10.37,2013-07-18 11:16:00,
2013-07-18 06:21:00,75.9,71.4,29.97,SW,225,3.5,3.5,86,0.00,,,0.00,0.0,WeatherDisplay:10.37,2013-07-18 11:21:00,
2013-07-18 06:27:00,76.1,71.6,29.97,SSW,202,3.5,3.5,86,0.00,,,0.00,0.0,WeatherDisplay:10.37,2013-07-18 11:27:00,
2013-07-18 06:32:00,76.3,71.8,29.97,SW,225,4.6,4.6,86,0.00,,,0.00,0.0,WeatherDisplay:10.37,2013-07-18 11:32:00,
2013-07-18 06:37:00,76.5,71.6,29.97,SW,225,2.3,2.3,85,0.00,,,0.00,0.0,WeatherDisplay:10.37,2013-07-18 11:37:00,
2013-07-18 06:42:00,76.6,71.8,29.97,SSW,202,3.5,3.5,85,0.00,,,0.00,0.0,WeatherDisplay:10.37,2013-07-18 11:42:00,
2013-07-18 06:47:00,76.8,72.0,29.97,SSW,202,3.5,3.5,85,0.00,,,0.00,0.0,WeatherDisplay:10.37,2013-07-18 11:47:00,
2013-07-18 06:53:00,77.2,72.0,29.97,SSW,202,3.5,3.5,84,0.00,,,0.00,0.0,WeatherDisplay:10.37,2013-07-18 11:53:00,
2013-07-18 06:58:00,77.4,72.1,29.94,SSW,202,3.5,3.5,84,0.00,,,0.00,0.0,WeatherDisplay:10.37,2013-07-18 11:58:00,
2013-07-18 07:03:00,77.7,72.5,29.94,SSW,202,3.5,3.5,84,0.00,,,0.00,0.0,WeatherDisplay:10.37,2013-07-18 12:03:00,
2013-07-18 07:08:00,77.9,72.3,29.94,SSW,202,5.8,5.8,83,0.00,,,0.00,0.0,WeatherDisplay:10.37,2013-07-18 12:08:00,
2013-07-18 07:13:00,77.9,72.3,29.94,SSW,202,3.8,3.8,83,0.00,,,0.00,0.0,WeatherDisplay:10.37,2013-07-18 12:13:00,
2013-07-18 07:18:00,78.1,72.5,29.94,SW,225,4.6,4.6,83,0.00,,,0.00,0.0,WeatherDisplay:10.37,2013-07-18 12:18:00,
2013-07-18 07:23:00,78.3,72.3,29.94,SW,225,4.9,4.9,82,0.00,,,0.00,0.0,WeatherDisplay:10.37,2013-07-18 12:23:00,
2013-07-18 07:28:00,78.4,72.5,29.94,SW,225,5.8,5.8,82,0.00,,,0.00,0.0,WeatherDisplay:10.37,2013-07-18 12:28:00,
2013-07-18 07:34:00,78.6,72.7,29.94,SSW,202,8.1,8.1,82,0.00,,,0.00,0.0,WeatherDisplay:10.37,2013-07-18 12:34:00,
2013-07-18 07:39:00,78.8,72.5,29.94,South,180,3.1,3.1,81,0.00,,,0.00,0.0,WeatherDisplay:10.37,2013-07-18 12:39:00,
2013-07-18 07:44:00,79.0,72.6,29.97,SSW,202,4.6,4.6,81,0.00,,,0.00,0.0,WeatherDisplay:10.37,2013-07-18 12:44:00,
2013-07-18 07:50:00,79.2,72.5,29.97,SSW,202,6.9,6.9,80,0.00,,,0.00,0.0,WeatherDisplay:10.37,2013-07-18 12:50:00,
2013-07-18 07:55:00,79.3,72.6,29.97,SSW,202,5.8,5.8,80,0.00,,,0.00,0.0,WeatherDisplay:10.37,2013-07-18 12:55:00,
2013-07-18 08:00:00,79.5,72.8,29.97,SW,225,5.8,5.8,80,0.00,,,0.00,0.0,WeatherDisplay:10.37,2013-07-18 13:00:00,
2013-07-18 08:05:00,79.7,73.0,29.97,SSW,202,5.8,5.8,80,0.00,,,0.00,0.0,WeatherDisplay:10.37,2013-07-18 13:05:00,
2013-07-18 08:10:00,79.9,72.8,29.97,SW,225,4.6,4.6,79,0.00,,,0.00,0.0,WeatherDisplay:10.37,2013-07-18 13:10:00,
2013-07-18 08:15:00,80.2,73.1,30.00,WSW,248,8.1,8.1,79,0.00,,,0.00,0.0,WeatherDisplay:10.37,2013-07-18 13:15:00,
2013-07-18 08:21:00,80.6,73.1,30.00,SSW,202,4.6,4.6,78,0.00,,,0.00,0.0,WeatherDisplay:10.37,2013-07-18 13:21:00,
2013-07-18 08:26:00,80.8,73.3,30.00,SSW,202,8.1,8.1,78,0.00,,,0.00,0.0,WeatherDisplay:10.37,2013-07-18 13:26:00,
2013-07-18 08:31:00,81.1,73.6,29.97,SW,225,5.8,5.8,78,0.00,,,0.00,0.0,WeatherDisplay:10.37,2013-07-18 13:31:00,
2013-07-18 08:36:00,81.5,73.6,29.97,SSW,202,8.1,8.1,77,0.00,,,0.00,0.0,WeatherDisplay:10.37,2013-07-18 13:36:00,
2013-07-18 08:42:00,81.9,73.9,29.97,South,180,3.5,3.6,77,0.00,,,0.00,0.0,WeatherDisplay:10.37,2013-07-18 13:42:00,
2013-07-18 08:47:00,82.2,73.9,29.97,WSW,248,8.7,8.7,76,0.00,,,0.00,0.0,WeatherDisplay:10.37,2013-07-18 13:47:00,
2013-07-18 08:52:00,82.6,73.8,29.97,SW,225,5.8,5.8,75,0.00,,,0.00,0.0,WeatherDisplay:10.37,2013-07-18 13:52:00,
2013-07-18 08:57:00,82.8,73.6,29.97,SW,225,8.5,8.5,74,0.00,,,0.00,0.0,WeatherDisplay:10.37,2013-07-18 13:57:00,
2013-07-18 09:02:00,83.3,74.1,29.94,SW,225,7.6,7.6,74,0.00,,,0.00,0.0,WeatherDisplay:10.37,2013-07-18 14:02:00,
2013-07-18 09:07:00,83.7,73.7,29.94,SSW,202,5.8,5.8,72,0.00,,,0.00,0.0,WeatherDisplay:10.37,2013-07-18 14:07:00,
2013-07-18 09:12:00,84.0,73.6,29.97,SW,225,11.5,11.5,71,0.00,,,0.00,0.0,WeatherDisplay:10.37,2013-07-18 14:12:00,
2013-07-18 09:18:00,84.6,74.1,29.97,SSW,202,4.6,4.6,71,0.00,,,0.00,0.0,WeatherDisplay:10.37,2013-07-18 14:18:00,
2013-07-18 09:23:00,84.9,73.6,29.97,WSW,248,11.5,11.5,69,0.00,,,0.00,0.0,WeatherDisplay:10.37,2013-07-18 14:23:00,
2013-07-18 09:28:00,85.3,74.0,29.97,SW,225,10.4,10.4,69,0.00,,,0.00,100.0,WeatherDisplay:10.37,2013-07-18 14:28:00,
2013-07-18 09:33:00,85.5,73.7,29.97,SW,225,8.1,8.1,68,0.00,,,0.00,100.0,WeatherDisplay:10.37,2013-07-18 14:33:00,
2013-07-18 09:38:00,85.8,74.0,29.97,SSW,202,9.2,9.2,68,0.00,,,0.00,100.0,WeatherDisplay:10.37,2013-07-18 14:38:00,
2013-07-18 09:43:00,86.2,73.9,29.97,South,180,6.9,6.9,67,0.00,,,0.00,100.0,WeatherDisplay:10.37,2013-07-18 14:43:00,
2013-07-18 09:48:00,86.5,74.3,29.97,SW,225,7.6,7.6,67,0.00,,,0.00,200.0,WeatherDisplay:10.37,2013-07-18 14:48:00,
2013-07-18 09:53:00,87.1,73.9,29.97,WSW,248,6.9,6.9,65,0.00,,,0.00,200.0,WeatherDisplay:10.37,2013-07-18 14:53:00,
2013-07-18 09:58:00,87.4,74.2,29.97,WSW,248,9.2,9.2,65,0.00,,,0.00,200.0,WeatherDisplay:10.37,2013-07-18 14:58:00,
2013-07-18 10:04:00,87.8,74.1,29.97,SW,225,5.8,5.8,64,0.00,,,0.00,200.0,WeatherDisplay:10.37,2013-07-18 15:04:00,
2013-07-18 10:09:00,88.3,74.1,29.97,West,270,8.7,8.7,63,0.00,,,0.00,200.0,WeatherDisplay:10.37,2013-07-18 15:09:00,
2013-07-18 10:14:00,88.9,73.7,29.97,WSW,248,10.4,10.4,61,0.00,,,0.00,200.0,WeatherDisplay:10.37,2013-07-18 15:14:00,
2013-07-18 10:19:00,89.2,74.0,29.97,SSW,202,9.2,9.2,61,0.00,,,0.00,200.0,WeatherDisplay:10.37,2013-07-18 15:19:00,
2013-07-18 10:25:00,89.4,73.2,29.97,SSW,202,13.0,13.0,59,0.00,,,0.00,200.0,WeatherDisplay:10.37,2013-07-18 15:25:00,
2013-07-18 10:30:00,89.6,72.9,29.94,South,180,12.7,12.7,58,0.00,,,0.00,300.0,WeatherDisplay:10.37,2013-07-18 15:30:00,
2013-07-18 10:35:00,90.0,72.7,29.94,SSW,202,7.6,7.6,57,0.00,,,0.00,300.0,WeatherDisplay:10.37,2013-07-18 15:35:00,
2013-07-18 10:40:00,90.3,73.0,29.94,SW,225,13.8,13.8,57,0.00,,,0.00,300.0,WeatherDisplay:10.37,2013-07-18 15:40:00,
2013-07-18 10:45:00,90.9,73.5,29.94,SSW,202,5.8,5.8,57,0.00,,,0.00,300.0,WeatherDisplay:10.37,2013-07-18 15:45:00,
2013-07-18 10:50:00,91.0,72.6,29.94,SSW,202,13.8,13.8,55,0.00,,,0.00,300.0,WeatherDisplay:10.37,2013-07-18 15:50:00,
2013-07-18 10:56:00,91.4,71.9,29.94,SW,225,10.4,10.4,53,0.00,,,0.00,300.0,WeatherDisplay:10.37,2013-07-18 15:56:00,
2013-07-18 11:01:00,91.6,72.0,29.91,SW,225,10.4,10.4,53,0.00,,,0.00,400.0,WeatherDisplay:10.37,2013-07-18 16:01:00,
2013-07-18 11:06:00,91.8,72.2,29.91,SW,225,8.1,8.1,53,0.00,,,0.00,400.0,WeatherDisplay:10.37,2013-07-18 16:06:00,
2013-07-18 11:11:00,91.9,72.4,29.91,SSW,202,7.4,7.4,53,0.00,,,0.00,400.0,WeatherDisplay:10.37,2013-07-18 16:11:00,
2013-07-18 11:16:00,92.3,72.1,29.91,SW,225,10.4,10.4,52,0.00,,,0.00,0.0,WeatherDisplay:10.37,2013-07-18 16:16:00,
2013-07-18 11:22:00,92.8,72.1,29.91,SSW,202,10.2,10.2,51,0.00,,,0.00,400.0,WeatherDisplay:10.37,2013-07-18 16:22:00,
2013-07-18 11:27:00,92.8,72.1,29.91,SW,225,10.4,10.4,51,0.00,,,0.00,400.0,WeatherDisplay:10.37,2013-07-18 16:27:00,
2013-07-18 11:32:00,93.0,71.0,29.91,WSW,248,11.5,11.5,49,0.00,,,0.00,400.0,WeatherDisplay:10.37,2013-07-18 16:32:00,
2013-07-18 11:37:00,93.2,70.6,29.91,SW,225,9.2,9.2,48,0.00,,,0.00,400.0,WeatherDisplay:10.37,2013-07-18 16:37:00,
2013-07-18 11:42:00,93.4,70.8,29.91,SSW,202,13.8,13.8,48,0.00,,,0.00,400.0,WeatherDisplay:10.37,2013-07-18 16:42:00,
2013-07-18 11:47:00,93.4,70.1,29.91,WSW,248,9.7,9.7,47,0.00,,,0.00,400.0,WeatherDisplay:10.37,2013-07-18 16:47:00,
2013-07-18 11:53:00,93.7,71.1,29.91,SW,225,4.3,4.3,48,0.00,,,0.00,500.0,WeatherDisplay:10.37,2013-07-18 16:53:00,
2013-07-18 11:58:00,94.3,71.6,29.91,SW,225,9.2,9.2,48,0.00,,,0.00,500.0,WeatherDisplay:10.37,2013-07-18 16:58:00,
2013-07-18 12:03:00,93.9,70.0,29.91,SW,225,9.2,9.2,46,0.00,,,0.00,500.0,WeatherDisplay:10.37,2013-07-18 17:03:00,
2013-07-18 12:08:00,94.3,70.3,29.91,SW,225,8.1,8.1,46,0.00,,,0.00,500.0,WeatherDisplay:10.37,2013-07-18 17:08:00,
2013-07-18 12:13:00,94.3,70.3,29.91,WSW,248,7.8,7.8,46,0.00,,,0.00,500.0,WeatherDisplay:10.37,2013-07-18 17:13:00,
2013-07-18 12:19:00,94.6,70.6,29.91,SSW,202,13.8,13.8,46,0.00,,,0.00,500.0,WeatherDisplay:10.37,2013-07-18 17:19:00,
2013-07-18 12:24:00,94.6,70.0,29.91,SW,225,12.7,12.7,45,0.00,,,0.00,500.0,WeatherDisplay:10.37,2013-07-18 17:24:00,
2013-07-18 12:29:00,94.6,70.0,29.91,SW,225,12.7,12.7,45,0.00,,,0.00,600.0,WeatherDisplay:10.37,2013-07-18 17:29:00,
2013-07-18 12:34:00,94.6,70.0,29.91,SW,225,16.1,16.1,45,0.00,,,0.00,600.0,WeatherDisplay:10.37,2013-07-18 17:34:00,
2013-07-18 12:40:00,95.0,69.7,29.91,South,180,10.4,10.4,44,0.00,,,0.00,600.0,WeatherDisplay:10.37,2013-07-18 17:40:00,
2013-07-18 12:45:00,95.5,70.2,29.91,SSW,202,8.1,8.1,44,0.00,,,0.00,600.0,WeatherDisplay:10.37,2013-07-18 17:45:00,
2013-07-18 12:50:00,95.5,69.5,29.91,SW,225,11.5,11.5,43,0.00,,,0.00,600.0,WeatherDisplay:10.37,2013-07-18 17:50:00,
2013-07-18 12:55:00,95.4,69.3,29.91,SSW,202,17.3,17.3,43,0.00,,,0.00,600.0,WeatherDisplay:10.37,2013-07-18 17:55:00,
2013-07-18 13:00:00,95.7,70.3,29.91,SSW,202,10.4,10.4,44,0.00,,,0.00,500.0,WeatherDisplay:10.37,2013-07-18 18:00:00,
2013-07-18 13:05:00,95.2,69.2,29.91,SW,225,11.5,11.5,43,0.00,,,0.00,0.0,WeatherDisplay:10.37,2013-07-18 18:05:00,
2013-07-18 13:10:00,94.6,69.3,29.91,SW,225,10.4,10.4,44,0.00,,,0.00,400.0,WeatherDisplay:10.37,2013-07-18 18:10:00,
2013-07-18 13:15:00,94.8,69.5,29.91,WNW,292,9.2,9.2,44,0.00,,,0.00,500.0,WeatherDisplay:10.37,2013-07-18 18:15:00,
2013-07-18 13:21:00,95.4,69.3,29.91,WSW,248,7.6,7.6,43,0.00,,,0.00,500.0,WeatherDisplay:10.37,2013-07-18 18:21:00,
2013-07-18 13:26:00,95.4,69.3,29.91,SW,225,5.8,5.8,43,0.00,,,0.00,100.0,WeatherDisplay:10.37,2013-07-18 18:26:00,
2013-07-18 13:31:00,95.9,69.8,29.91,WSW,248,11.5,11.5,43,0.00,,,0.00,500.0,WeatherDisplay:10.37,2013-07-18 18:31:00,
2013-07-18 13:36:00,96.1,70.0,29.91,SSW,202,8.1,8.1,43,0.00,,,0.00,500.0,WeatherDisplay:10.37,2013-07-18 18:36:00,
2013-07-18 13:41:00,96.6,69.8,29.91,SSW,202,13.2,13.2,42,0.00,,,0.00,500.0,WeatherDisplay:10.37,2013-07-18 18:41:00,
2013-07-18 13:47:00,96.8,69.2,29.88,SW,225,6.9,6.9,41,0.00,,,0.00,500.0,WeatherDisplay:10.37,2013-07-18 18:47:00,
2013-07-18 13:52:00,96.3,69.4,29.88,SW,225,9.2,9.2,42,0.00,,,0.00,400.0,WeatherDisplay:10.37,2013-07-18 18:52:00,
2013-07-18 13:57:00,96.6,70.5,29.88,SSW,202,5.8,5.8,43,0.00,,,0.00,500.0,WeatherDisplay:10.37,2013-07-18 18:57:00,
2013-07-18 14:02:00,97.0,70.1,29.88,SSW,202,10.4,10.4,42,0.00,,,0.00,500.0,WeatherDisplay:10.37,2013-07-18 19:02:00,
2013-07-18 14:08:00,97.0,68.7,29.88,SW,225,6.9,6.9,40,0.00,,,0.00,400.0,WeatherDisplay:10.37,2013-07-18 19:08:00,
2013-07-18 14:13:00,96.8,68.5,29.88,SSW,202,13.8,13.8,40,0.00,,,0.00,100.0,WeatherDisplay:10.37,2013-07-18 19:13:00,
2013-07-18 14:18:00,96.8,68.5,29.88,SW,225,9.2,9.2,40,0.00,,,0.00,500.0,WeatherDisplay:10.37,2013-07-18 19:18:00,
2013-07-18 14:23:00,96.8,67.8,29.88,SW,225,12.7,12.7,39,0.00,,,0.00,500.0,WeatherDisplay:10.37,2013-07-18 19:23:00,
2013-07-18 14:29:00,96.8,68.5,29.88,SSW,202,9.2,9.2,40,0.00,,,0.00,300.0,WeatherDisplay:10.37,2013-07-18 19:29:00,
2013-07-18 14:34:00,96.3,68.7,29.88,SSW,202,12.7,12.7,41,0.00,,,0.00,500.0,WeatherDisplay:10.37,2013-07-18 19:34:00,
2013-07-18 14:39:00,96.8,68.5,29.88,SSW,202,14.3,14.3,40,0.00,,,0.00,500.0,WeatherDisplay:10.37,2013-07-18 19:39:00,
2013-07-18 14:44:00,97.0,67.9,29.88,SW,225,16.1,16.1,39,0.00,,,0.00,500.0,WeatherDisplay:10.37,2013-07-18 19:44:00,
2013-07-18 14:49:00,97.2,68.8,29.88,SSW,202,12.7,12.7,40,0.00,,,0.00,400.0,WeatherDisplay:10.37,2013-07-18 19:49:00,
2013-07-18 14:54:00,96.6,67.6,29.88,SW,225,11.5,11.5,39,0.00,,,0.00,400.0,WeatherDisplay:10.37,2013-07-18 19:54:00,
2013-07-18 14:59:00,96.6,68.3,29.85,SW,225,9.2,9.2,40,0.00,,,0.00,400.0,WeatherDisplay:10.37,2013-07-18 19:59:00,
2013-07-18 15:04:00,96.6,68.3,29.85,SW,225,10.4,10.4,40,0.00,,,0.00,400.0,WeatherDisplay:10.37,2013-07-18 20:04:00,
2013-07-18 15:09:00,96.6,68.3,29.85,SW,225,12.7,12.7,40,0.00,,,0.00,400.0,WeatherDisplay:10.37,2013-07-18 20:09:00,
2013-07-18 15:14:00,96.4,68.2,29.82,SSW,202,9.2,9.2,40,0.00,,,0.00,0.0,WeatherDisplay:10.37,2013-07-18 20:14:00,
2013-07-18 15:20:00,96.1,67.9,29.82,SSW,202,11.5,11.5,40,0.00,,,0.00,400.0,WeatherDisplay:10.37,2013-07-18 20:20:00,
2013-07-18 15:25:00,96.3,68.0,29.82,SSW,202,10.7,10.7,40,0.00,,,0.00,400.0,WeatherDisplay:10.37,2013-07-18 20:25:00,
2013-07-18 15:30:00,96.3,68.7,29.85,SSW,202,8.5,8.5,41,0.00,,,0.00,400.0,WeatherDisplay:10.37,2013-07-18 20:30:00,
2013-07-18 15:35:00,96.4,68.2,29.85,SSW,202,10.9,10.9,40,0.00,,,0.00,400.0,WeatherDisplay:10.37,2013-07-18 20:35:00,
2013-07-18 15:40:00,96.1,67.9,29.85,SW,225,13.8,13.8,40,0.00,,,0.00,300.0,WeatherDisplay:10.37,2013-07-18 20:40:00,
2013-07-18 15:45:00,96.1,67.9,29.85,SSW,202,10.4,10.4,40,0.00,,,0.00,0.0,WeatherDisplay:10.37,2013-07-18 20:45:00,
2013-07-18 15:51:00,96.1,67.9,29.85,SSW,202,12.8,12.8,40,0.00,,,0.00,200.0,WeatherDisplay:10.37,2013-07-18 20:51:00,
2013-07-18 15:56:00,96.1,67.9,29.85,SSW,202,10.4,10.4,40,0.00,,,0.00,300.0,WeatherDisplay:10.37,2013-07-18 20:56:00,
2013-07-18 16:01:00,96.3,68.0,29.85,SSW,202,10.4,10.4,40,0.00,,,0.00,300.0,WeatherDisplay:10.37,2013-07-18 21:01:00,
2013-07-18 16:06:00,96.3,68.0,29.85,SW,225,14.3,14.3,40,0.00,,,0.00,300.0,WeatherDisplay:10.37,2013-07-18 21:06:00,
2013-07-18 16:11:00,96.3,68.0,29.85,SW,225,11.5,11.5,40,0.00,,,0.00,300.0,WeatherDisplay:10.37,2013-07-18 21:11:00,
2013-07-18 16:16:00,96.1,67.9,29.85,SW,225,11.5,11.5,40,0.00,,,0.00,0.0,WeatherDisplay:10.37,2013-07-18 21:16:00,
2013-07-18 16:21:00,95.9,67.7,29.85,SW,225,10.4,10.4,40,0.00,,,0.00,100.0,WeatherDisplay:10.37,2013-07-18 21:21:00,
2013-07-18 16:26:00,95.9,68.4,29.85,South,180,9.2,9.2,41,0.00,,,0.00,100.0,WeatherDisplay:10.37,2013-07-18 21:26:00,
2013-07-18 16:32:00,95.4,67.2,29.85,SSW,202,12.7,12.7,40,0.00,,,0.00,200.0,WeatherDisplay:10.37,2013-07-18 21:32:00,
2013-07-18 16:37:00,95.5,68.1,29.85,SW,225,11.5,11.5,41,0.00,,,0.00,100.0,WeatherDisplay:10.37,2013-07-18 21:37:00,
2013-07-18 16:42:00,95.5,68.1,29.85,WSW,248,10.4,10.4,41,0.00,,,0.00,0.0,WeatherDisplay:10.37,2013-07-18 21:42:00,
2013-07-18 16:47:00,95.4,67.9,29.85,SSW,202,8.1,8.1,41,0.00,,,0.00,100.0,WeatherDisplay:10.37,2013-07-18 21:47:00,
2013-07-18 16:52:00,95.2,67.8,29.85,South,180,9.8,9.8,41,0.00,,,0.00,0.0,WeatherDisplay:10.37,2013-07-18 21:52:00,
2013-07-18 16:57:00,95.2,67.8,29.85,WSW,248,9.2,9.2,41,0.00,,,0.00,0.0,WeatherDisplay:10.37,2013-07-18 21:57:00,
2013-07-18 17:02:00,95.4,67.9,29.85,SW,225,9.2,9.2,41,0.00,,,0.00,0.0,WeatherDisplay:10.37,2013-07-18 22:02:00,
2013-07-18 17:07:00,95.2,67.8,29.85,SSW,202,5.8,6.0,41,0.00,,,0.00,0.0,WeatherDisplay:10.37,2013-07-18 22:07:00,
2013-07-18 17:13:00,94.5,67.8,29.82,SSW,202,9.2,9.2,42,0.00,,,0.00,0.0,WeatherDisplay:10.37,2013-07-18 22:13:00,
2013-07-18 17:18:00,94.3,67.0,29.82,SSW,202,15.2,15.2,41,0.00,,,0.00,0.0,WeatherDisplay:10.37,2013-07-18 22:18:00,
2013-07-18 17:23:00,94.5,67.8,29.82,SSW,202,8.1,8.1,42,0.00,,,0.00,0.0,WeatherDisplay:10.37,2013-07-18 22:23:00,
2013-07-18 17:28:00,94.3,67.7,29.82,SW,225,19.6,19.6,42,0.00,,,0.00,0.0,WeatherDisplay:10.37,2013-07-18 22:28:00,
2013-07-18 17:33:00,94.3,67.7,29.82,SSW,202,13.5,13.5,42,0.00,,,0.00,0.0,WeatherDisplay:10.37,2013-07-18 22:33:00,
2013-07-18 17:39:00,94.1,67.5,29.82,SSW,202,13.8,13.8,42,0.00,,,0.00,0.0,WeatherDisplay:10.37,2013-07-18 22:39:00,
2013-07-18 17:44:00,93.9,67.3,29.79,SW,225,15.0,15.0,42,0.00,,,0.00,0.0,WeatherDisplay:10.37,2013-07-18 22:44:00,
2013-07-18 17:49:00,93.9,67.3,29.79,SW,225,8.1,8.1,42,0.00,,,0.00,0.0,WeatherDisplay:10.37,2013-07-18 22:49:00,
2013-07-18 17:54:00,93.9,67.3,29.79,SSW,202,10.4,10.4,42,0.00,,,0.00,0.0,WeatherDisplay:10.37,2013-07-18 22:54:00,
2013-07-18 17:59:00,93.6,67.0,29.79,West,270,12.7,12.7,42,0.00,,,0.00,0.0,WeatherDisplay:10.37,2013-07-18 22:59:00,
2013-07-18 18:04:00,93.4,66.9,29.79,SSW,202,10.4,10.4,42,0.00,,,0.00,0.0,WeatherDisplay:10.37,2013-07-18 23:04:00,
2013-07-18 18:09:00,93.4,67.5,29.79,SW,225,6.9,6.9,43,0.00,,,0.00,0.0,WeatherDisplay:10.37,2013-07-18 23:09:00,
2013-07-18 18:15:00,93.4,67.5,29.76,SW,225,12.8,12.8,43,0.00,,,0.00,0.0,WeatherDisplay:10.37,2013-07-18 23:15:00,
2013-07-18 18:20:00,93.0,67.9,29.76,South,180,11.5,11.5,44,0.00,,,0.00,0.0,WeatherDisplay:10.37,2013-07-18 23:20:00,
2013-07-18 18:25:00,92.8,67.7,29.76,SSW,202,13.8,13.8,44,0.00,,,0.00,0.0,WeatherDisplay:10.37,2013-07-18 23:25:00,
2013-07-18 18:30:00,92.7,67.6,29.79,SSW,202,11.8,11.8,44,0.00,,,0.00,0.0,WeatherDisplay:10.37,2013-07-18 23:30:00,
2013-07-18 18:35:00,92.3,67.2,29.79,SSW,202,12.7,12.7,44,0.00,,,0.00,0.0,WeatherDisplay:10.37,2013-07-18 23:35:00,
2013-07-18 18:40:00,92.1,67.1,29.79,SSW,202,9.2,9.2,44,0.00,,,0.00,0.0,WeatherDisplay:10.37,2013-07-18 23:40:00,
2013-07-18 18:46:00,91.9,67.6,29.79,SW,225,9.2,9.2,45,0.00,,,0.00,0.0,WeatherDisplay:10.37,2013-07-18 23:46:00,
2013-07-18 18:51:00,91.8,67.4,29.79,WSW,248,11.8,11.8,45,0.00,,,0.00,0.0,WeatherDisplay:10.37,2013-07-18 23:51:00,
2013-07-18 18:56:00,91.6,67.2,29.79,SW,225,6.9,6.9,45,0.00,,,0.00,0.0,WeatherDisplay:10.37,2013-07-18 23:56:00,
2013-07-18 19:01:00,91.4,67.1,29.79,SSW,202,10.9,10.9,45,0.00,,,0.00,0.0,WeatherDisplay:10.37,2013-07-19 00:01:00,
2013-07-18 19:06:00,91.2,67.5,29.79,SSW,202,12.7,12.7,46,0.00,,,0.00,0.0,WeatherDisplay:10.37,2013-07-19 00:06:00,
2013-07-18 19:12:00,91.0,67.4,29.79,SW,225,13.8,13.8,46,0.00,,,0.00,0.0,WeatherDisplay:10.37,2013-07-19 00:12:00,
2013-07-18 19:17:00,90.7,67.1,29.76,SW,225,14.7,14.7,46,0.00,,,0.00,0.0,WeatherDisplay:10.37,2013-07-19 00:17:00,
2013-07-18 19:22:00,90.7,67.1,29.76,SSW,202,10.4,10.4,46,0.00,,,0.00,0.0,WeatherDisplay:10.37,2013-07-19 00:22:00,
2013-07-18 19:27:00,90.5,66.9,29.76,SW,225,13.8,13.8,46,0.00,,,0.00,0.0,WeatherDisplay:10.37,2013-07-19 00:27:00,
2013-07-18 19:32:00,90.3,67.4,29.76,SSW,202,8.1,8.1,47,0.00,,,0.00,0.0,WeatherDisplay:10.37,2013-07-19 00:32:00,
2013-07-18 19:37:00,90.1,67.2,29.76,SSW,202,10.5,10.5,47,0.00,,,0.00,0.0,WeatherDisplay:10.37,2013-07-19 00:37:00,
2013-07-18 19:43:00,90.0,67.0,29.76,South,180,15.0,15.0,47,0.00,,,0.00,0.0,WeatherDisplay:10.37,2013-07-19 00:43:00,
2013-07-18 19:48:00,89.8,67.5,29.76,SW,225,11.5,11.5,48,0.00,,,0.00,0.0,WeatherDisplay:10.37,2013-07-19 00:48:00,
2013-07-18 19:53:00,89.6,67.3,29.76,SW,225,6.9,6.9,48,0.00,,,0.00,0.0,WeatherDisplay:10.37,2013-07-19 00:53:00,
2013-07-18 19:59:00,89.4,67.7,29.76,SW,225,8.7,8.7,49,0.00,,,0.00,0.0,WeatherDisplay:10.37,2013-07-19 00:59:00,
2013-07-18 20:04:00,89.2,67.6,29.76,SSW,202,5.8,5.8,49,0.00,,,0.00,0.0,WeatherDisplay:10.37,2013-07-19 01:04:00,
2013-07-18 20:09:00,89.1,68.0,29.76,SSW,202,6.2,6.2,50,0.00,,,0.00,0.0,WeatherDisplay:10.37,2013-07-19 01:09:00,
2013-07-18 20:14:00,88.9,67.8,29.76,South,180,5.9,5.9,50,0.00,,,0.00,0.0,WeatherDisplay:10.37,2013-07-19 01:14:00,
2013-07-18 20:19:00,88.7,68.2,29.76,SW,225,10.2,10.2,51,0.00,,,0.00,0.0,WeatherDisplay:10.37,2013-07-19 01:19:00,
2013-07-18 20:25:00,88.5,68.1,29.76,SSW,202,8.1,8.1,51,0.00,,,0.00,0.0,WeatherDisplay:10.37,2013-07-19 01:25:00,
2013-07-18 20:30:00,88.2,67.8,29.76,SW,225,4.7,4.7,51,0.00,,,0.00,0.0,WeatherDisplay:10.37,2013-07-19 01:30:00,
2013-07-18 20:35:00,88.0,68.1,29.76,SW,225,4.6,4.6,52,0.00,,,0.00,0.0,WeatherDisplay:10.37,2013-07-19 01:35:00,
2013-07-18 20:40:00,87.8,68.0,29.76,SSW,202,5.8,5.8,52,0.00,,,0.00,0.0,WeatherDisplay:10.37,2013-07-19 01:40:00,
2013-07-18 20:45:00,87.6,68.4,29.76,SSW,202,4.6,4.6,53,0.00,,,0.00,0.0,WeatherDisplay:10.37,2013-07-19 01:45:00,
2013-07-18 20:51:00,87.4,68.2,29.76,SSW,202,4.9,4.9,53,0.00,,,0.00,0.0,WeatherDisplay:10.37,2013-07-19 01:51:00,
2013-07-18 20:56:00,87.3,68.0,29.76,SW,225,4.6,4.6,53,0.00,,,0.00,0.0,WeatherDisplay:10.37,2013-07-19 01:56:00,
2013-07-18 21:01:00,87.1,68.4,29.76,SSW,202,3.5,3.5,54,0.00,,,0.00,0.0,WeatherDisplay:10.37,2013-07-19 02:01:00,
2013-07-18 21:06:00,86.9,68.3,29.76,SW,225,5.8,5.8,54,0.00,,,0.00,0.0,WeatherDisplay:10.37,2013-07-19 02:06:00,
2013-07-18 21:11:00,86.7,68.1,29.76,SW,225,4.6,4.6,54,0.00,,,0.00,0.0,WeatherDisplay:10.37,2013-07-19 02:11:00,
2013-07-18 21:17:00,86.5,68.5,29.76,SW,225,4.6,4.6,55,0.00,,,0.00,0.0,WeatherDisplay:10.37,2013-07-19 02:17:00,
2013-07-18 21:22:00,86.4,68.3,29.76,SSW,202,5.8,5.8,55,0.00,,,0.00,0.0,WeatherDisplay:10.37,2013-07-19 02:22:00,
2013-07-18 21:27:00,86.2,68.1,29.76,SSW,202,5.8,5.8,55,0.00,,,0.00,0.0,WeatherDisplay:10.37,2013-07-19 02:27:00,
2013-07-18 21:32:00,86.2,68.6,29.76,SW,225,8.1,8.1,56,0.00,,,0.00,0.0,WeatherDisplay:10.37,2013-07-19 02:32:00,
2013-07-18 21:37:00,86.0,68.5,29.76,SW,225,4.6,4.6,56,0.00,,,0.00,0.0,WeatherDisplay:10.37,2013-07-19 02:37:00,
2013-07-18 21:42:00,85.8,68.3,29.76,SW,225,5.4,5.4,56,0.00,,,0.00,0.0,WeatherDisplay:10.37,2013-07-19 02:42:00,
2013-07-18 21:47:00,85.8,68.8,29.76,SW,225,8.1,8.1,57,0.00,,,0.00,0.0,WeatherDisplay:10.37,2013-07-19 02:47:00,
2013-07-18 21:52:00,85.6,68.7,29.76,SSW,202,8.1,8.1,57,0.00,,,0.00,0.0,WeatherDisplay:10.37,2013-07-19 02:52:00,
2013-07-18 21:57:00,85.6,68.7,29.76,SSW,202,4.6,4.6,57,0.00,,,0.00,0.0,WeatherDisplay:10.37,2013-07-19 02:57:00,
2013-07-18 22:03:00,85.5,68.5,29.76,SW,225,7.4,7.4,57,0.00,,,0.00,0.0,WeatherDisplay:10.37,2013-07-19 03:03:00,
2013-07-18 22:08:00,85.5,68.5,29.76,SSW,202,9.2,9.2,57,0.00,,,0.00,0.0,WeatherDisplay:10.37,2013-07-19 03:08:00,
2013-07-18 22:13:00,85.3,68.3,29.76,SW,225,8.1,8.1,57,0.00,,,0.00,0.0,WeatherDisplay:10.37,2013-07-19 03:13:00,
2013-07-18 22:18:00,85.3,68.3,29.76,SW,225,10.4,10.4,57,0.00,,,0.00,0.0,WeatherDisplay:10.37,2013-07-19 03:18:00,
2013-07-18 22:24:00,85.3,68.3,29.76,SSW,202,3.6,3.6,57,0.00,,,0.00,0.0,WeatherDisplay:10.37,2013-07-19 03:24:00,
2013-07-18 22:29:00,85.1,68.2,29.76,SW,225,4.6,4.6,57,0.00,,,0.00,0.0,WeatherDisplay:10.37,2013-07-19 03:29:00,
2013-07-18 22:34:00,84.9,68.5,29.76,SSW,202,5.8,5.8,58,0.00,,,0.00,0.0,WeatherDisplay:10.37,2013-07-19 03:34:00,
2013-07-18 22:39:00,84.7,68.3,29.76,SW,225,6.9,6.9,58,0.00,,,0.00,0.0,WeatherDisplay:10.37,2013-07-19 03:39:00,
2013-07-18 22:44:00,84.7,68.3,29.76,SSW,202,3.5,3.5,58,0.00,,,0.00,0.0,WeatherDisplay:10.37,2013-07-19 03:44:00,
2013-07-18 22:50:00,84.6,68.7,29.76,SSW,202,4.6,4.6,59,0.00,,,0.00,0.0,WeatherDisplay:10.37,2013-07-19 03:50:00,
2013-07-18 22:55:00,84.4,68.5,29.76,SSW,202,5.8,5.8,59,0.00,,,0.00,0.0,WeatherDisplay:10.37,2013-07-19 03:55:00,
2013-07-18 23:00:00,84.4,68.5,29.73,SSW,202,5.8,5.8,59,0.00,,,0.00,0.0,WeatherDisplay:10.37,2013-07-19 04:00:00,
2013-07-18 23:01:00,84.4,68.5,29.73,SW,225,6.4,6.4,59,0.00,,,0.00,0.0,WeatherDisplay:10.37,2013-07-19 04:01:00,
2013-07-18 23:02:00,84.2,68.8,29.73,SW,225,6.9,6.9,60,0.00,,,0.00,0.0,WeatherDisplay:10.37,2013-07-19 04:02:00,
2013-07-18 23:03:00,84.2,68.8,29.73,SW,225,4.6,4.6,60,0.00,,,0.00,0.0,WeatherDisplay:10.37,2013-07-19 04:03:00,
2013-07-18 23:09:00,84.2,68.8,29.73,SW,225,6.9,6.9,60,0.00,,,0.00,0.0,WeatherDisplay:10.37,2013-07-19 04:09:00,
2013-07-18 23:14:00,84.0,68.6,29.73,SSW,202,5.8,5.8,60,0.00,,,0.00,0.0,WeatherDisplay:10.37,2013-07-19 04:14:00,
2013-07-18 23:19:00,84.0,69.1,29.73,SSW,202,5.8,5.8,61,0.00,,,0.00,0.0,WeatherDisplay:10.37,2013-07-19 04:19:00,
2013-07-18 23:24:00,84.0,69.1,29.73,SW,225,4.7,4.7,61,0.00,,,0.00,0.0,WeatherDisplay:10.37,2013-07-19 04:24:00,
2013-07-18 23:29:00,83.8,69.0,29.73,SW,225,8.1,8.1,61,0.00,,,0.00,0.0,WeatherDisplay:10.37,2013-07-19 04:29:00,
2013-07-18 23:35:00,83.8,69.4,29.73,SW,225,3.6,3.6,62,0.00,,,0.00,0.0,WeatherDisplay:10.37,2013-07-19 04:35:00,
2013-07-18 23:40:00,83.7,69.3,29.73,SW,225,4.6,4.6,62,0.00,,,0.00,0.0,WeatherDisplay:10.37,2013-07-19 04:40:00,
2013-07-18 23:45:00,83.7,69.3,29.73,SW,225,4.6,4.6,62,0.00,,,0.00,0.0,WeatherDisplay:10.37,2013-07-19 04:45:00,
2013-07-18 23:50:00,83.5,69.1,29.73,WSW,248,5.8,5.8,62,0.00,,,0.00,0.0,WeatherDisplay:10.37,2013-07-19 04:50:00,
2013-07-18 23:56:00,83.3,69.4,29.73,SSW,202,6.4,6.4,63,0.00,,,0.00,0.0,WeatherDisplay:10.37,2013-07-19 04:56:00,